This is the latest recevied weather packets stored in our database for station/object N7CW. If no packets are shown the sender has not sent any weather packets the latest 10 day(s).
| Time | Temp. | Humidity | Pressure | Rain* | Wind** | Luminosity | Snow |
|---|---|---|---|---|---|---|---|
| 1777651786 | 16.11° C | 25% | 1016.7 hPa | 0 mm | - | 528 W/m² | - |
| 1777651482 | 16.11° C | 27% | 1016.6 hPa | 0 mm | - | 515 W/m² | - |
| 1777651180 | 16.11° C | 27% | 1016.5 hPa | 0 mm | - | 499 W/m² | - |
| 1777650877 | 15.56° C | 27% | 1016.5 hPa | 0 mm | - | 484 W/m² | - |
| 1777650574 | 16.11° C | 27% | 1016.5 hPa | 0 mm | - | 468 W/m² | - |
| 1777650271 | 15.56° C | 26% | 1016.2 hPa | 0 mm | - | 452 W/m² | - |
| 1777649968 | 15.56° C | 28% | 1016.4 hPa | 0 mm | - | 436 W/m² | - |
| 1777649666 | 16.11° C | 28% | 1016.2 hPa | 0 mm | - | 423 W/m² | - |
| 1777649361 | 15° C | 29% | 1016.4 hPa | 0 mm | - | 404 W/m² | - |
| 1777649059 | 15° C | 29% | 1016.4 hPa | 0 mm | - | 386 W/m² | - |
| 1777648756 | 16.11° C | 27% | 1016.2 hPa | 0 mm | - | 372 W/m² | - |
| 1777648453 | 15° C | 28% | 1016.5 hPa | 0 mm | - | 358 W/m² | - |
| 1777648149 | 15° C | 28% | 1016.1 hPa | 0 mm | - | 337 W/m² | - |
| 1777647845 | 15° C | 28% | 1016.4 hPa | 0 mm | - | 319 W/m² | - |
| 1777647541 | 15° C | 28% | 1016.1 hPa | 0 mm | - | 302 W/m² | - |
| 1777647238 | 13.89° C | 28% | 1016.2 hPa | 0 mm | - | 285 W/m² | - |
| 1777646935 | 13.89° C | 28% | 1016 hPa | 0 mm | - | 268 W/m² | - |
| 1777646631 | 13.89° C | 28% | 1016 hPa | 0 mm | - | 250 W/m² | - |
| 1777646327 | 13.89° C | 28% | 1016 hPa | 0 mm | - | 234 W/m² | - |
| 1777646024 | 12.78° C | 28% | 1015.9 hPa | 0 mm | - | 219 W/m² | - |
| 1777645721 | 12.22° C | 29% | 1016 hPa | 0 mm | - | 200 W/m² | - |
| 1777645417 | 12.78° C | 31% | 1015.8 hPa | 0 mm | - | 184 W/m² | - |
| 1777645113 | 12.78° C | 33% | 1016.1 hPa | 0 mm | - | 168 W/m² | - |
| 1777644810 | 11.67° C | 31% | 1015.8 hPa | 0 mm | - | 155 W/m² | - |
| 1777644508 | 11.11° C | 33% | 1015.9 hPa | 0 mm | - | 138 W/m² | - |
* Rain latest hour (hover to see other rain measurements)
** Current wind speed in m/s (hover to see current wind gust speed)